Skagway, AK

5:33 PM AKST on February 24, 2017 (GMT -0900)
Skagway

Weather History for PAGY - February, 2013

Change the Weather History Date:

Sunday, February 17, 2013

  Actual Average Record
Temperature  
Mean Temperature 34 °F -  
Max Temperature 37 °F 34 °F 46 °F (1993)
Min Temperature 32 °F 26 °F 1 °F (1990)
Degree Days  
Heating Degree Days 30    
Moisture  
Dew Point 29 °F    
Average Humidity 79    
Maximum Humidity 96    
Minimum Humidity 62    
Precipitation  
Precipitation 0.01 in - - ()
Sea Level Pressure  
Sea Level Pressure 29.84 in    
Wind  
Wind Speed 14 mph (SSW)    
Max Wind Speed 25 mph    
Max Gust Speed 33 mph    
Visibility 8 miles    
Events Snow    
Averages and records for this station are not official NWS values.
T = Trace of Precipitation, MM = Missing Value Source: NWS Daily Summary

Daily Weather History Graph

Daily Weather History Graph

Search for Another Location

Airport or City:

Trip Planner

Search our weather history database for the weather conditions in past years. The results will help you decide how hot, cold, wet, or windy it might be!

Date:

Astronomy

Feb. 17, 2013 Rise Set
Actual Time 7:30 AM AKST 5:00 PM AKST
Civil Twilight 6:48 AM AKST 5:43 PM AKST
Nautical Twilight 6:00 AM AKST 6:31 PM AKST
Astronomical Twilight 5:13 AM AKST 7:18 PM AKST
Moon 9:31 AM AKST (2/17) 1:58 AM AKST (2/17)
Length of Visible Light 10h 55m
Length of Day
9h 29m
Waxing Crescent, 50% of the Moon is Illuminated
Feb 17
Waxing Crescent
Feb 25
Full
Mar 4
Last Quarter
Mar 11
New
Mar 19
First Quarter

Hourly Weather History & Observations

Time (AKST) Temp. Windchill Dew Point Humidity Pressure Visibility Wind Dir Wind Speed Gust Speed Precip Events Conditions
12:53 AM 37.0 °F 28.1 °F 26.1 °F 65% 30.06 in 10.0 mi SW 15.0 mph - N/A   Overcast
1:53 AM 36.0 °F 24.4 °F 27.0 °F 70% 30.05 in 10.0 mi SSW 23.0 mph 33.4 mph N/A   Overcast
2:23 AM 35.6 °F 25.2 °F 26.6 °F 70% 30.05 in 10.0 mi SSW 18.4 mph 28.8 mph N/A   Overcast
2:31 AM 37.4 °F 27.5 °F 26.6 °F 65% 30.03 in 10.0 mi SSW 18.4 mph 26.5 mph N/A   Overcast
3:53 AM 37.0 °F 26.7 °F 25.0 °F 62% 30.02 in 10.0 mi SW 19.6 mph 28.8 mph N/A   Overcast
4:53 AM 37.0 °F 25.9 °F 25.0 °F 62% 30.00 in 10.0 mi SSW 23.0 mph - N/A   Overcast
5:53 AM 36.0 °F 23.9 °F 27.0 °F 70% 29.97 in 10.0 mi SSW 25.3 mph 32.2 mph N/A   Overcast
6:53 AM 35.1 °F 23.0 °F 27.0 °F 72% 29.95 in 10.0 mi SSW 24.2 mph 32.2 mph N/A   Overcast
7:53 AM 35.1 °F 23.8 °F 27.0 °F 72% 29.93 in 10.0 mi SSW 20.7 mph 29.9 mph N/A   Overcast
8:53 AM 35.1 °F 24.8 °F 28.0 °F 76% 29.91 in 10.0 mi SSW 17.3 mph 27.6 mph N/A   Overcast
9:53 AM 35.1 °F 23.8 °F 28.9 °F 78% 29.89 in 10.0 mi SSW 20.7 mph 28.8 mph N/A   Overcast
10:53 AM 36.0 °F 26.0 °F 28.0 °F 73% 29.88 in 10.0 mi SSW 17.3 mph 27.6 mph N/A   Overcast
11:53 AM 36.0 °F 26.3 °F 28.0 °F 73% 29.86 in 10.0 mi SSW 16.1 mph - N/A   Overcast
12:53 PM 36.0 °F 24.4 °F 28.9 °F 76% 29.84 in 10.0 mi SSW 23.0 mph - N/A   Overcast
1:53 PM 36.0 °F 28.0 °F 30.0 °F 79% 29.83 in 10.0 mi SSW 11.5 mph 24.2 mph N/A   Overcast
2:53 PM 36.0 °F 27.1 °F 30.0 °F 79% 29.81 in 10.0 mi SSW 13.8 mph 18.4 mph N/A   Overcast
3:53 PM 36.0 °F 29.6 °F 28.9 °F 76% 29.80 in 10.0 mi SSW 8.1 mph - N/A   Overcast
4:53 PM 36.0 °F 28.0 °F 28.9 °F 76% 29.78 in 10.0 mi SW 11.5 mph - N/A   Overcast
5:53 PM 35.1 °F 31.0 °F 30.0 °F 82% 29.77 in 10.0 mi SSW 4.6 mph - N/A   Overcast
6:31 PM 33.8 °F - 30.2 °F 87% 29.76 in 10.0 mi Calm Calm - N/A   Overcast
6:39 PM 33.8 °F - 30.2 °F 87% 29.76 in 10.0 mi Calm Calm - N/A   Overcast
6:53 PM 34.0 °F - 30.0 °F 85% 29.76 in 8.0 mi Calm Calm - N/A   Overcast
8:00 PM 33.8 °F - 30.2 °F 87% 29.74 in 2.5 mi Calm Calm - 0.00 in Snow Light Snow
8:03 PM 33.8 °F - 30.2 °F 87% 29.73 in 3.0 mi Calm Calm - 0.00 in Snow Light Snow
8:16 PM 33.8 °F - 30.2 °F 87% 29.73 in 4.0 mi Calm Calm - 0.00 in Snow Light Snow
8:53 PM 33.1 °F - 30.9 °F 92% 29.72 in 2.5 mi Calm Calm - 0.00 in Snow Light Snow
9:03 PM 33.8 °F - 30.2 °F 87% 29.72 in 4.0 mi Calm Calm - 0.00 in Snow Light Snow
9:26 PM 33.8 °F - 32.0 °F 93% 29.71 in 3.0 mi Calm Calm - 0.00 in Snow Light Snow
9:33 PM 33.8 °F - 30.2 °F 87% 29.71 in 2.5 mi Calm Calm - 0.01 in Snow Light Snow
9:38 PM 33.8 °F - 30.2 °F 87% 29.71 in 3.0 mi Calm Calm - 0.01 in Snow Light Snow
9:53 PM 33.1 °F - 30.0 °F 89% 29.71 in 5.0 mi Calm Calm - 0.01 in Snow Light Snow
10:53 PM 32.0 °F - 30.9 °F 96% 29.70 in 6.0 mi Calm Calm - 0.00 in Snow Light Snow
11:53 PM 32.0 °F - 30.0 °F 92% 29.69 in 9.0 mi Calm Calm - 0.00 in   Overcast